H1 CPF 2 NER 2023 9 2 9 245 01 glonass146 H2 2216101 9146 54377 2023 9 2 0 0 0 2023 9 5 23 45 0 900 1 1 0 0 0 1 H9 10 0 60189 0.00000 0 -11613135.992 -22558080.353 -2801613.084 10 0 60189 900.00000 0 -11818963.912 -22623735.888 406643.560 10 0 60189 1800.00000 0 -11831498.291 -22333312.125 3607020.833 10 0 60189 2700.00000 0 -11605948.748 -21719635.774 6737503.106 10 0 60189 3600.00000 0 -11106095.637 -20825720.475 9737449.569 10 0 60189 4500.00000 0 -10306048.435 -19702871.646 12548760.869 10 0 60189 5400.00000 0 -9191578.735 -18408465.137 15116995.421 10 0 60189 6300.00000 0 -7760971.574 -17003492.797 17392414.532 10 0 60189 7200.00000 0 -6025358.792 -15549977.412 19330936.973 10 0 60189 8100.00000 0 -4008519.539 -14108364.616 20894985.411 10 0 60189 9000.00000 0 -1746154.871 -12735000.037 22054209.247 10 0 60189 9900.00000 0 715334.939 -11479796.346 22786070.544 10 0 60189 10800.00000 0 3320521.421 -10384186.845 23076282.234 10 0 60189 11700.00000 0 6006999.898 -9479450.470 22919090.273 10 0 60189 12600.00000 0 8707739.266 -8785477.827 22317394.070 10 0 60189 13500.00000 0 11353633.963 -8310029.762 21282702.261 10 0 60189 14400.00000 0 13876153.905 -8048519.687 19834923.704 10 0 60189 15300.00000 0 16209983.551 -7984329.292 18001996.505 10 0 60189 16200.00000 0 18295541.221 -8089645.061 15819360.853 10 0 60189 17100.00000 0 20081274.170 -8326781.158 13329284.430 10 0 60189 18000.00000 0 21525633.545 -8649933.665 10580052.185 10 0 60189 18900.00000 0 22598646.297 -9007292.623 7625035.204 10 0 60189 19800.00000 0 23283017.542 -9343422.813 4521656.052 10 0 60189 20700.00000 0 23574716.347 -9601812.250 1330270.588 10 0 60189 21600.00000 0 23483019.667 -9727479.773 -1887011.750 10 0 60189 22500.00000 0 23030012.050 -9669530.084 -5067545.510 10 0 60189 23400.00000 0 22249562.048 -9383546.434 -8149379.853 10 0 60189 24300.00000 0 21185818.662 -8833717.863 -11072476.993 10 0 60189 25200.00000 0 19891291.776 -7994609.055 -13779893.396 10 0 60189 26100.00000 0 18424598.393 -6852496.172 -16218899.410 10 0 60189 27000.00000 0 16847970.717 -5406210.613 -18342014.482 10 0 60189 27900.00000 0 15224632.134 -3667453.723 -20107937.033 10 0 60189 28800.00000 0 13616152.559 -1660568.195 -21482350.483 10 0 60189 29700.00000 0 12079895.095 578225.006 -22438589.687 10 0 60189 30600.00000 0 10666661.631 3002092.643 -22958155.138 10 0 60189 31500.00000 0 9418636.213 5555305.367 -23031065.464 10 0 60189 32400.00000 0 8367711.879 8175332.418 -22656042.118 10 0 60189 33300.00000 0 7534270.171 10795227.515 -21840523.515 10 0 60189 34200.00000 0 6926463.156 13346206.528 -20600509.140 10 0 60189 35100.00000 0 6540026.375 15760309.740 -18960237.481 10 0 60189 36000.00000 0 6358628.817 17973038.214 -16951704.688 10 0 60189 36900.00000 0 6354743.342 19925854.983 -14614033.892 10 0 60189 37800.00000 0 6490999.238 21568447.677 -11992707.898 10 0 60189 38700.00000 0 6721958.464 22860659.273 -9138680.463 10 0 60189 39600.00000 0 6996239.480 23774007.595 -6107383.720 10 0 60189 40500.00000 0 7258898.217 24292731.468 -2957651.170 10 0 60189 41400.00000 0 7453965.130 24414321.210 249422.780 10 0 60189 42300.00000 0 7527030.948 24149512.660 3451664.563 10 0 60189 43200.00000 0 7427771.964 23521746.265 6587021.713 10 0 60189 44100.00000 0 7112308.385 22566114.948 9594758.651 10 0 60189 45000.00000 0 6545296.456 21327845.572 12416625.208 10 0 60189 45900.00000 0 5701666.306 19860378.045 14997975.883 10 0 60189 46800.00000 0 4567932.289 18223122.461 17288818.896 10 0 60189 47700.00000 0 3143020.388 16478987.848 19244775.600 10 0 60189 48600.00000 0 1438577.232 14691785.162 20827932.564 10 0 60189 49500.00000 0 -521253.359 12923612.137 22007570.781 10 0 60189 50400.00000 0 -2700578.516 11232328.187 22760758.544 10 0 60189 51300.00000 0 -5052999.788 9669223.683 23072797.087 10 0 60189 52200.00000 0 -7523302.258 8276979.888 22937510.522 10 0 60189 53100.00000 0 -10049521.176 7088003.950 22357374.266 10 0 60189 54000.00000 0 -12565302.319 6123207.964 21343478.904 10 0 60189 54900.00000 0 -15002459.815 5391282.906 19915329.219 10 0 60189 55800.00000 0 -17293626.596 4888497.949 18100481.060 10 0 60189 56700.00000 0 -19374888.228 4599033.850 15934021.668 10 0 60189 57600.00000 0 -21188290.928 4495836.892 13457902.090 10 0 60189 58500.00000 0 -22684119.134 4541957.923 10720133.323 10 0 60189 59400.00000 0 -23822846.995 4692320.440 7773860.731 10 0 60189 60300.00000 0 -24576681.334 4895843.178 4676334.046 10 0 60189 61200.00000 0 -24930630.357 5097827.243 1487792.772 10 0 60189 62100.00000 0 -24883052.272 5242506.102 -1729711.062 10 0 60189 63000.00000 0 -24445659.849 5275649.363 -4913529.226 10 0 60189 63900.00000 0 -23642980.164 5147108.591 -8001647.886 10 0 60189 64800.00000 0 -22511292.052 4813195.576 -10933907.259 10 0 60189 65700.00000 0 -21097086.194 4238790.498 -13653185.235 10 0 60189 66600.00000 0 -19455113.256 3399088.936 -16106520.564 10 0 60189 67500.00000 0 -17646103.058 2280912.160 -18246152.698 10 0 60189 68400.00000 0 -15734251.665 883523.902 -20030457.248 10 0 60189 69300.00000 0 -13784583.001 -781081.986 -21424758.434 10 0 60189 70200.00000 0 -11860296.507 -2688435.971 -22402002.661 10 0 60189 71100.00000 0 -10020212.588 -4802379.313 -22943280.413 10 0 60189 72000.00000 0 -8316422.976 -7076349.869 -23038186.857 10 0 60189 72900.00000 0 -6792244.010 -9455113.623 -22685014.876 10 0 60189 73800.00000 0 -5480557.617 -11876869.586 -21890777.601 10 0 60189 74700.00000 0 -4402608.148 -14275640.209 -20671060.850 10 0 60189 75600.00000 0 -3567303.726 -16583847.622 -19049709.096 10 0 60189 76500.00000 0 -2971049.471 -18734968.475 -17058351.775 10 0 60189 77400.00000 0 -2598117.490 -20666156.959 -14735779.682 10 0 60189 78300.00000 0 -2421536.098 -22320727.129 -12127184.045 10 0 60189 79200.00000 0 -2404458.935 -23650391.668 -9283273.377 10 0 60189 80100.00000 0 -2501954.735 -24617164.461 -6259285.541 10 0 60189 81000.00000 0 -2663140.997 -25194848.539 -3113914.372 10 0 60189 81900.00000 0 -2833570.585 -25370048.300 91828.220 10 0 60189 82800.00000 0 -2957769.968 -25142664.785 3295792.563 10 0 60189 83700.00000 0 -2981821.627 -24525854.373 6435891.178 10 0 60189 84600.00000 0 -2855881.610 -23545453.538 9451295.377 10 0 60189 85500.00000 0 -2536526.124 -22238894.449 12283605.706 10 0 60190 0.00000 0 -1988828.420 -20653657.321 14877973.911 10 0 60190 900.00000 0 -1188078.244 -18845323.390 17184156.850 10 0 60190 1800.00000 0 -121072.143 -16875311.752 19157479.305 10 0 60190 2700.00000 0 1213080.996 -14808391.085 20759692.675 10 0 60190 3600.00000 0 2802673.125 -12710071.195 21959710.262 10 0 60190 4500.00000 0 4623642.466 -10643981.235 22734207.110 10 0 60190 5400.00000 0 6640342.553 -8669342.765 23068073.058 10 0 60190 6300.00000 0 8806804.752 -6838641.718 22954710.467 10 0 60190 7200.00000 0 11068443.776 -5195595.267 22396170.650 10 0 60190 8100.00000 0 13364137.305 -3773497.500 21403125.828 10 0 60190 9000.00000 0 15628595.162 -2594012.363 19994676.192 10 0 60190 9900.00000 0 17794921.061 -1666464.088 18197994.599 10 0 60190 10800.00000 0 19797261.468 -987654.762 16047814.371 10 0 60190 11700.00000 0 21573431.837 -542216.909 13585768.671 10 0 60190 12600.00000 0 23067410.712 -303486.566 10859592.973 10 0 60190 13500.00000 0 24231597.045 -234860.328 7922205.024 10 0 60190 14400.00000 0 25028735.401 -291579.249 4830679.461 10 0 60190 15300.00000 0 25433427.191 -422864.039 1645136.845 10 0 60190 16200.00000 0 25433163.207 -574310.679 -1572431.083 10 0 60190 17100.00000 0 25028832.909 -690444.118 -4759376.376 10 0 60190 18000.00000 0 24234687.989 -717320.535 -7853625.346 10 0 60190 18900.00000 0 23077761.132 -605066.338 -10794899.329 10 0 60190 19800.00000 0 21596764.135 -310244.555 -13525900.605 10 0 60190 20700.00000 0 19840511.930 202053.344 -15993439.073 10 0 60190 21600.00000 0 17865939.239 956480.440 -18149476.657 10 0 60190 22500.00000 0 15735793.940 1966146.624 -19952068.326 10 0 60190 23400.00000 0 13516104.771 3231825.738 -21366180.955 10 0 60190 24300.00000 0 11273530.345 4741691.905 -22364374.021 10 0 60190 25200.00000 0 9072700.988 6471596.808 -22927329.180 10 0 60190 26100.00000 0 6973664.910 8385876.635 -23044218.938 10 0 60190 27000.00000 0 5029545.205 10438654.977 -22712907.985 10 0 60190 27900.00000 0 3284504.910 12575587.196 -21939984.112 10 0 60190 28800.00000 0 1772103.990 14735973.182 -20740618.923 10 0 60190 29700.00000 0 514115.318 16855150.166 -19138261.860 10 0 60190 30600.00000 0 -480152.783 18867065.649 -17164174.143 10 0 60190 31500.00000 0 -1214001.208 20706923.072 -14856812.273 10 0 60190 32400.00000 0 -1702948.101 22313789.989 -12261073.528 10 0 60190 33300.00000 0 -1973818.923 23633060.214 -9427418.431 10 0 60190 34200.00000 0 -2063358.729 24618667.567 -6410887.517 10 0 60190 35100.00000 0 -2016426.800 25234959.410 -3270031.677 10 0 60190 36000.00000 0 -1883851.021 25458152.378 -65776.892 10 0 60190 36900.00000 0 -1720033.449 25277310.279 3139754.542 10 0 60190 37800.00000 0 -1580408.685 24694804.048 6284443.560 10 0 60190 38700.00000 0 -1518862.539 23726235.267 9307371.664 10 0 60190 39600.00000 0 -1585219.912 22399826.994 12149993.185 10 0 60190 40500.00000 0 -1822907.674 20755307.686 14757260.377 10 0 60190 41400.00000 0 -2266890.839 18842334.842 17078680.298 10 0 60190 42300.00000 0 -2941968.846 16718523.852 19069283.832 10 0 60190 43200.00000 0 -3861503.724 14447163.598 20690489.038 10 0 60190 44100.00000 0 -5026634.036 12094713.025 21910843.018 10 0 60190 45000.00000 0 -6426008.454 9728181.731 22706628.663 10 0 60190 45900.00000 0 -8036051.413 7412502.288 23062325.121 10 0 60190 46800.00000 0 -9821751.448 5208002.180 22970913.247 10 0 60190 47700.00000 0 -11737941.208 3168079.339 22434020.013 10 0 60190 48600.00000 0 -13731017.833 1337176.923 21461898.510 10 0 60190 49500.00000 0 -15741033.976 -250859.173 20073243.015 10 0 60190 50400.00000 0 -17704074.048 -1573972.017 18294841.510 10 0 60190 51300.00000 0 -19554817.986 -2622585.089 16161070.979 10 0 60190 52200.00000 0 -21229186.415 -3399764.514 13713243.804 10 0 60190 53100.00000 0 -22666956.989 -3920845.147 10998816.638 10 0 60190 54000.00000 0 -23814242.173 -4212536.083 8070476.008 10 0 60190 54900.00000 0 -24625723.928 -4311543.170 4985117.690 10 0 60190 55800.00000 0 -25066550.316 -4262766.794 1802739.456 10 0 60190 56700.00000 0 -25113813.004 -4117151.545 -1414731.039 10 0 60190 57600.00000 0 -24757542.031 -3929279.543 -4604649.809 10 0 60190 58500.00000 0 -24001174.652 -3754810.479 -7704886.807 10 0 60190 59400.00000 0 -22861477.425 -3647878.262 -10655047.723 10 0 60190 60300.00000 0 -21367924.085 -3658556.224 -13397662.163 10 0 60190 61200.00000 0 -19561555.076 -3830499.927 -15879313.735 10 0 60190 62100.00000 0 -17493366.745 -4198869.017 -18051688.951 10 0 60190 63000.00000 0 -15222298.252 -4788617.482 -19872523.727 10 0 60190 63900.00000 0 -12812901.201 -5613225.740 -21306428.582 10 0 60190 64800.00000 0 -10332790.299 -6673928.970 -22325576.413 10 0 60190 65700.00000 0 -7849982.163 -7959474.818 -22910239.732 10 0 60190 66600.00000 0 -5430233.865 -9446420.955 -23049167.438 10 0 60190 67500.00000 0 -3134492.219 -11099960.108 -22739794.510 10 0 60190 68400.00000 0 -1016559.760 -12875237.889 -21988281.386 10 0 60190 69300.00000 0 878926.145 -14719107.974 -20809383.053 10 0 60190 70200.00000 0 2518118.151 -16572250.974 -19226151.214 10 0 60190 71100.00000 0 3879121.707 -18371568.122 -17269475.964 10 0 60190 72000.00000 0 4952649.214 -20052749.525 -14977476.481 10 0 60190 72900.00000 0 5742140.474 -21552909.564 -12394753.022 10 0 60190 73800.00000 0 6263346.678 -22813179.320 -9571515.070 10 0 60190 74700.00000 0 6543397.571 -23781147.828 -6562602.884 10 0 60190 75600.00000 0 6619392.987 -24413050.388 -3426421.591 10 0 60190 76500.00000 0 6536579.692 -24675612.846 -223808.619 10 0 60190 77400.00000 0 6346191.597 -24547475.198 2983143.522 10 0 60190 78300.00000 0 6103045.302 -24020135.496 6132286.364 10 0 60190 79200.00000 0 5862992.842 -23098375.086 9162613.532 10 0 60190 80100.00000 0 5680339.241 -21800147.756 12015434.835 10 0 60190 81000.00000 0 5605333.649 -20155937.615 14635504.253 10 0 60190 81900.00000 0 5681839.556 -18207612.429 16972080.700 10 0 60190 82800.00000 0 5945281.909 -16006819.869 18979901.845 10 0 60190 83700.00000 0 6420957.370 -13612992.781 20620053.079 10 0 60190 84600.00000 0 7122778.804 -11091045.533 21860715.709 10 0 60190 85500.00000 0 8052507.166 -8508855.971 22677780.640 10 0 60191 0.00000 0 9199503.720 -5934636.485 23055316.228 10 0 60191 900.00000 0 10541014.900 -3434300.521 22985881.608 10 0 60191 1800.00000 0 12042977.924 -1068935.961 22470678.875 10 0 60191 2700.00000 0 13661317.379 1107515.478 21519541.342 10 0 60191 3600.00000 0 15343679.043 3050273.919 20150756.578 10 0 60191 4500.00000 0 17031530.889 4725350.236 18390726.747 10 0 60191 5400.00000 0 18662544.894 6110720.501 16273471.393 10 0 60191 6300.00000 0 20173161.183 7196997.041 13839980.839 10 0 60191 7200.00000 0 21501227.678 7987567.988 11137431.435 10 0 60191 8100.00000 0 22588604.649 8498199.340 8218276.774 10 0 60191 9000.00000 0 23383624.296 8756116.198 5139231.805 10 0 60191 9900.00000 0 23843300.930 8798601.932 1960169.310 10 0 60191 10800.00000 0 23935197.430 8671174.756 -1257049.560 10 0 60191 11700.00000 0 23638867.786 8425419.408 -4449787.348 10 0 60191 12600.00000 0 22946813.388 8116566.676 -7555860.291 10 0 60191 13500.00000 0 21864911.330 7800924.527 -10514761.064 10 0 60191 14400.00000 0 20412295.538 7533271.142 -13268849.134 10 0 60191 15300.00000 0 18620694.950 7364321.853 -15764484.204 10 0 60191 16200.00000 0 16533256.192 7338378.775 -17953079.573 10 0 60191 17100.00000 0 14202900.162 7491263.985 -19792054.106 10 0 60191 18000.00000 0 11690281.719 7848624.753 -21245663.772 10 0 60191 18900.00000 0 9061438.338 8424683.242 -22285696.503 10 0 60191 19800.00000 0 6385226.473 9221483.926 -22892017.077 10 0 60191 20700.00000 0 3730653.019 10228670.635 -23052951.948 10 0 60191 21600.00000 0 1164213.234 11423802.560 -22765507.252 10 0 60191 22500.00000 0 -1252654.199 12773195.723 -22035416.567 10 0 60191 23400.00000 0 -3465889.651 14233254.190 -20877018.341 10 0 60191 24300.00000 0 -5430816.913 15752234.793 -19312966.138 10 0 60191 25200.00000 0 -7113747.475 17272370.982 -17373778.049 10 0 60191 26100.00000 0 -8493119.636 18732266.437 -15097234.571 10 0 60191 27000.00000 0 -9560127.033 20069457.915 -12527637.131 10 0 60191 27900.00000 0 -10318812.551 21223039.838 -9714941.980 10 0 60191 28800.00000 0 -10785625.927 22136240.628 -6713786.563 10 0 60191 29700.00000 0 -10988465.771 22758842.975 -3582427.448 10 0 60191 30600.00000 0 -10965248.107 23049346.862 -381610.502 10 0 60191 31500.00000 0 -10762063.233 22976784.999 2826604.689 10 0 60191 32400.00000 0 -10430999.639 22522114.954 5980043.458 10 0 60191 33300.00000 0 -10027727.433 21679130.000 9017614.768 10 0 60191 34200.00000 0 -9608943.459 20454850.761 11880487.069 10 0 60191 35100.00000 0 -9229785.774 18869381.306 14513219.120 10 0 60191 36000.00000 0 -8941326.177 16955235.502 16864824.588 10 0 60191 36900.00000 0 -8788245.950 14756161.256 18889750.623 10 0 60191 37800.00000 0 -8806792.230 12325510.838 20548752.392 10 0 60191 38700.00000 0 -9023100.641 9724224.006 21809647.558 10 0 60191 39600.00000 0 -9451954.656 7018506.457 22647936.847 10 0 60191 40500.00000 0 -10096034.066 4277298.513 23047279.272 10 0 60191 41400.00000 0 -10945684.862 1569637.456 22999813.080 10 0 60191 42300.00000 0 -11979221.295 -1037978.511 22506316.064 10 0 60191 43200.00000 0 -13163748.956 -3484116.764 21576201.683 10 0 60191 44100.00000 0 -14456476.086 -5714723.452 20227350.135 10 0 60191 45000.00000 0 -15806459.932 -7685128.088 18485776.514 10 0 60191 45900.00000 0 -17156716.554 -9361656.676 16385141.089 10 0 60191 46800.00000 0 -18446606.958 -10722786.312 13966109.746 10 0 60191 47700.00000 0 -19614400.207 -11759793.050 11275575.677 10 0 60191 48600.00000 0 -20599906.164 -12476865.737 8365756.303 10 0 60191 49500.00000 0 -21347066.885 -12890680.920 5293182.211 10 0 60191 50400.00000 0 -21806396.695 -13029456.629 2117597.484 10 0 60191 51300.00000 0 -21937166.919 -12931525.096 -1099207.038 10 0 60191 52200.00000 0 -21709241.528 -12643485.121 -4294604.239 10 0 60191 53100.00000 0 -21104484.590 -12218012.948 -7406360.378 10 0 60191 54000.00000 0 -20117678.475 -11711425.381 -10373858.718 10 0 60191 54900.00000 0 -18756912.604 -11181099.582 -13139291.986 10 0 60191 55800.00000 0 -17043425.192 -10682860.266 -15648799.087 10 0 60191 56700.00000 0 -15010903.825 -10268446.315 -17853522.839 10 0 60191 57600.00000 0 -12704273.810 -9983165.316 -19710567.312 10 0 60191 58500.00000 0 -10178025.037 -9863836.271 -21183835.620 10 0 60191 59400.00000 0 -7494147.558 -9937108.121 -22244731.790 10 0 60191 60300.00000 0 -4719762.453 -10218225.477 -22872713.255 10 0 60191 61200.00000 0 -1924547.135 -10710293.640 -23055683.749 10 0 60191 62100.00000 0 821937.421 -11404073.663 -22790219.669 10 0 60191 63000.00000 0 3452906.382 -12278315.602 -22081626.293 10 0 60191 63900.00000 0 5906887.386 -13300615.364 -20943823.626 10 0 60191 64800.00000 0 8130028.791 -14428758.474 -19399064.825 10 0 60191 65700.00000 0 10078084.999 -15612493.668 -17477493.401 10 0 60191 66600.00000 0 11717997.676 -16795661.223 -15216548.356 10 0 60191 67500.00000 0 13029008.839 -17918586.218 -12660229.289 10 0 60191 68400.00000 0 14003261.418 -18920635.872 -9858236.071 10 0 60191 69300.00000 0 14645864.330 -19742833.395 -6865000.095 10 0 60191 70200.00000 0 14974421.496 -20330418.549 -3738626.099 10 0 60191 71100.00000 0 15018046.548 -20635247.478 -539765.158 10 0 60191 72000.00000 0 14815906.327 -20617931.212 2669559.181 10 0 60191 72900.00000 0 14415355.793 -20249623.307 5827148.974 10 0 60191 73800.00000 0 13869743.808 -19513381.801 8871831.172 10 0 60191 74700.00000 0 13235982.682 -18405048.510 11744635.191 10 0 60191 75600.00000 0 12571984.015 -16933608.776 14389926.525 10 0 60191 76500.00000 0 11934068.528 -15121016.297 16756475.162 10 0 60191 77400.00000 0 11374458.474 -13001489.810 18798438.893 10 0 60191 78300.00000 0 10938957.520 -10620310.049 20476243.439 10 0 60191 79200.00000 0 10664915.023 -8032165.880 21757343.219 10 0 60191 80100.00000 0 10579559.837 -5299116.950 22616848.833 10 0 60191 81000.00000 0 10698773.407 -2488255.836 23038009.672 10 0 60191 81900.00000 0 11026353.839 330835.067 23012542.607 10 0 60191 82800.00000 0 11553802.416 3088728.093 22540800.286 10 0 60191 83700.00000 0 12260642.497 5718788.219 21631775.311 10 0 60191 84600.00000 0 13115258.693 8159696.234 20302939.334 10 0 60191 85500.00000 0 14076222.577 10357753.369 18579919.053 10 0 60192 0.00000 0 15094050.664 12268872.089 16496014.199 10 0 60192 900.00000 0 16113322.678 13860171.416 14091564.254 10 0 60192 1800.00000 0 17075070.615 15111107.720 11413177.688 10 0 60192 2700.00000 0 17919340.437 16014096.918 8512833.868 10 0 60192 3600.00000 0 18587817.052 16574599.113 5446876.997 10 0 60192 4500.00000 0 19026401.869 16810662.980 2274920.279 10 0 60192 5400.00000 0 19187632.970 16751948.842 -941318.025 10 0 60192 6300.00000 0 19032844.251 16438271.851 -4139223.477 10 0 60192 7200.00000 0 18533970.595 15917727.318 -7256514.694 10 0 60192 8100.00000 0 17674921.058 15244478.278 -10232467.800 10 0 60192 9000.00000 0 16452460.382 14476299.983 -13009110.939 10 0 60192 9900.00000 0 14876560.142 13671986.481 -15532364.227 10 0 60192 10800.00000 0 12970203.555 12888730.328 -17753101.851 10 0 60192 11700.00000 0 10768651.305 12179587.457 -19628114.787 10 0 60192 12600.00000 0 8318198.733 11591135.380 -21120954.869 10 0 60192 13500.00000 0 5674476.285 11161424.313 -22202643.671 10 0 60192 14400.00000 0 2900364.329 10918308.021 -22852232.612 10 0 60192 15300.00000 0 63609.543 10878224.701 -23057203.878 10 0 60192 16200.00000 0 -2765757.625 11045478.876 -22813705.074 10 0 60192 17100.00000 0 -5518096.941 11412053.841 -22126613.841 10 0 60192 18000.00000 0 -8126812.754 11957961.694 -21009432.019 10 0 60192 18900.00000 0 -10530878.931 12652115.230 -19484012.224 10 0 60192 19800.00000 0 -12677130.236 13453684.081 -17580122.796 10 0 60192 20700.00000 0 -14522225.977 14313877.133 -15334860.216 10 0 60192 21600.00000 0 -16034205.723 15178075.502 -12791920.821 10 0 60192 22500.00000 0 -17193573.995 15988225.750 -10000746.320 10 0 60192 23400.00000 0 -17993870.564 16685392.217 -7015559.984 10 0 60192 24300.00000 0 -18441704.540 17212360.874 -3894312.399 10 0 60192 25200.00000 0 -18556252.758 17516185.046 -697557.340 10 0 60192 26100.00000 0 -18368245.258 17550565.969 2512720.364 10 0 60192 27000.00000 0 -17918481.963 17277968.163 5674302.312 10 0 60192 27900.00000 0 -17255944.006 16671380.863 8725936.375 10 0 60192 28800.00000 0 -16435579.842 15715651.570 11608515.941 10 0 60192 29700.00000 0 -15515859.568 14408335.686 14266216.280 10 0 60192 30600.00000 0 -14556200.177 12760026.314 16647566.709 10 0 60192 31500.00000 0 -13614369.592 10794149.837 18706438.578 10 0 60192 32400.00000 0 -12743977.903 8546234.876 20402930.899 10 0 60192 33300.00000 0 -11992160.385 6062683.843 21704137.344 10 0 60192 34200.00000 0 -11397548.844 3399096.717 22584780.562 10 0 60192 35100.00000 0 -10988615.795 618214.927 23027702.121 10 0 60192 36000.00000 0 -10782460.645 -2212431.157 23024198.886 10 0 60192 36900.00000 0 -10784088.794 -5023075.401 22574199.248 10 0 60192 37800.00000 0 -10986214.344 -7744365.594 21686275.319 10 0 60192 38700.00000 0 -11369595.452 -10310001.290 20377490.035 10 0 60192 39600.00000 0 -11903889.302 -12659251.419 18673080.971 10 0 60192 40500.00000 0 -12548991.941 -14739247.877 16605985.660 10 0 60192 41400.00000 0 -13256807.821 -16506960.033 14216216.143 10 0 60192 42300.00000 0 -13973375.519 -17930767.822 11550093.592 10 0 60192 43200.00000 0 -14641260.661 -18991567.489 8659356.686 10 0 60192 44100.00000 0 -15202115.305 -19683363.282 5600160.282 10 0 60192 45000.00000 0 -15599295.313 -20013319.832 2431983.520 10 0 60192 45900.00000 0 -15780424.276 -20001272.736 -783531.301 10 0 60192 46800.00000 0 -15699794.258 -19678717.867 -3983785.907 10 0 60192 47700.00000 0 -15320500.185 -19087322.275 -7106454.825 10 0 60192 48600.00000 0 -14616215.823 -18277020.126 -10090710.600 10 0 60192 49500.00000 0 -13572534.430 -17303774.983 -12878420.293 10 0 60192 50400.00000 0 -12187815.769 -16227104.106 -15415288.595 10 0 60192 51300.00000 0 -10473502.278 -15107470.586 -17651924.191 10 0 60192 52200.00000 0 -8453889.926 -14003654.656 -19544807.754 10 0 60192 53100.00000 0 -6165362.559 -12970216.163 -21057142.181 10 0 60192 54000.00000 0 -3655121.388 -12055155.953 -22159568.409 10 0 60192 54900.00000 0 -979462.520 -11297875.094 -22830733.073 10 0 60192 55800.00000 0 1798325.475 -10727517.819 -23057697.435 10 0 60192 56700.00000 0 4610356.268 -10361767.462 -22836180.346 10 0 60192 57600.00000 0 7386732.972 -10206145.194 -22170631.301 10 0 60192 58500.00000 0 10058220.282 -10253839.941 -21074132.996 10 0 60192 59400.00000 0 12558890.712 -10486075.380 -19568136.074 10 0 60192 60300.00000 0 14828635.518 -10872997.211 -17682031.891 10 0 60192 61200.00000 0 16815436.663 -11375042.113 -15452572.211 10 0 60192 62100.00000 0 18477306.471 -11944729.609 -12923147.550 10 0 60192 63000.00000 0 19783815.551 -12528800.420 -10142938.547 10 0 60192 63900.00000 0 20717146.916 -13070610.540 -7165957.135 10 0 60192 64800.00000 0 21272633.990 -13512679.638 -4049996.285 10 0 60192 65700.00000 0 21458761.823 -13799286.138 -855508.848 10 0 60192 66600.00000 0 21296633.123 -13878999.533 2355562.730 10 0 60192 67500.00000 0 20818923.023 -13707043.286 5520983.168 10 0 60192 68400.00000 0 20068367.625 -13247388.905 8579424.620 10 0 60192 69300.00000 0 19095850.639 -12474493.160 11471647.497 10 0 60192 70200.00000 0 17958168.912 -11374605.370 14141639.489 10 0 60192 71100.00000 0 16715570.676 -9946589.594 16537691.431 10 0 60192 72000.00000 0 15429169.538 -8202226.767 18613389.956 10 0 60192 72900.00000 0 14158342.068 -6165983.223 20328508.622 10 0 60192 73800.00000 0 12958217.253 -3874254.035 21649781.155 10 0 60192 74700.00000 0 11877362.154 -1374111.202 22551542.634 10 0 60192 75600.00000 0 10955759.819 1278393.080 23016226.789 10 0 60192 76500.00000 0 10223163.475 4020299.504 23034710.089 10 0 60192 77400.00000 0 9697895.511 6784107.024 22606495.938 10 0 60192 78300.00000 0 9386141.452 9500334.268 21739734.925 10 0 60192 79200.00000 0 9281768.828 12100172.429 20451079.964 10 0 60192 80100.00000 0 9366679.043 14518120.801 18765377.968 10 0 60192 81000.00000 0 9611678.320 16694496.414 16715202.721 10 0 60192 81900.00000 0 9977831.929 18577713.843 14340236.534 10 0 60192 82800.00000 0 10418245.520 20126240.225 11686511.373 10 0 60192 83700.00000 0 10880199.063 21310143.569 8805523.015 10 0 60192 84600.00000 0 11307543.560 22112169.064 5753234.643 10 0 60192 85500.00000 0 11643259.054 22528297.615 2588988.898 99